Погода в Покровском

Украина / Полтавская область     50°02′23″N   33°19′17″E
темп.,
°C
ветер,
м/с
пор.,
м/с
влажн.,
%
обл.,
%
осадки,
мм/ч
давл.,
гПа
погр.,
м
23 апреля, пт
пт2300:00+9ю4117844 0.0 1018206
03:00+10ю5137790 0.0 1017377
06:00+8ю41084100 0.0 1016281
09:00+11ююз577537 0.4 1016497
12:00+14ююз7965100 0.0 10151408
15:00+8ссз7886100 0.6 1016537
18:00+7сз6983100 0.1 1016789
21:00+6ссз2579100 0.1 1017361
24 апреля, сб
сб2400:00+5зюз378866 0.0 1016255
03:00+3з410883 0.0 1016226
06:00+2з411874 0.0 1016281
09:00+6зсз696513 0.0 1017980
12:00+7з81153100 0.1 10181853
15:00+8зсз91140100 0.1 10183114
18:00+7зсз7105370 0.2 10191781
21:00+3з36678 0.3 102097
25 апреля, вс
вс2500:00+2зюз36730 0.0 1021108
03:00+1з35785 0.0 102182
06:000юз35823 0.0 102184
09:00+7ююз57605 0.0 1020639
12:00+10юз81055100 0.1 10181876
15:00+9з7106891 0.4 10171331
18:00+6з4789100 1.1 1017739
21:00+5сз3684100 2.4 1018543
26 апреля, пн
пн2600:00+3з22857 0.0 101825
03:00+1з23850 0.0 101831
06:000сз33815 0.0 101760
09:00+5з236249 0.0 1017546
12:00+8з454796 0.1 10161993
15:00+9з564692 0.3 10151795
18:00+9зюз57525 0.3 10141741
21:00+4з487993 0.8 1015273
27 апреля, вт
вт2700:00+2зсз338823 0.0 101654
03:00+1зюз3583100 0.0 1016100
06:00+1з2481100 0.0 101569
09:00+5з3560100 0.0 1016523
12:00+9з4642100 0.0 10152437
15:00+9з564181 0.0 10142069
18:00+8зсз575653 0.4 10151410
21:00+4зсз22735 0.6 101722